time_stamp(utc),avg(mph),gust(mph),direction(deg),12m_air_temp(f),sonic_u(cm/s),sonic_v(cm/s),sonic_w(cm/s),pressure,2m_air_temp(f),pyranometer(W/m^2)
"2019-10-12 00:03:36+00",22.8,25.8,,60,500,848,17,1016.47,59.8,0
"2019-10-12 00:08:36+00",20.3,22.3,,59.9,429,769,1,1016.44,59.8,0
"2019-10-12 00:13:36+00",24.6,27.6,,59.8,631,829,13,1016.48,59.7,0
"2019-10-12 00:18:36+00",25.1,28.1,,59.6,648,837,22,1016.42,59.7,0
"2019-10-12 00:23:36+00",24.1,27.1,,59.5,660,758,7,1016.35,59.6,0
"2019-10-12 00:28:36+00",23.2,25.2,,59.3,598,772,6,1016.32,59.4,0
"2019-10-12 00:33:36+00",23.4,25.4,,59.3,504,896,12,1016.39,59.3,0
"2019-10-12 00:38:36+00",23.2,26.2,,59.3,553,829,24,1016.42,59.2,0
"2019-10-12 00:43:36+00",21.6,24.6,,59.3,566,710,15,1016.53,59.2,0
"2019-10-12 00:48:36+00",21.3,23.3,,59.1,500,789,19,1016.44,59.1,0
"2019-10-12 00:53:36+00",22.7,24.7,,58.9,527,847,15,1016.5,59,0
"2019-10-12 00:58:36+00",19.3,21.3,,58.8,475,686,20,1016.51,58.9,0
"2019-10-12 01:03:36+00",19.3,21.3,,58.8,443,717,8,1016.52,58.8,0
"2019-10-12 01:08:36+00",18.9,20.9,,58.7,387,723,11,1016.38,58.7,0
"2019-10-12 01:13:36+00",16.4,19.4,,58.8,321,614,35,1016.46,58.7,0
"2019-10-12 01:18:36+00",16.8,18.8,,58.7,317,653,9,1016.44,58.6,0
"2019-10-12 01:23:36+00",21.2,23.2,,58.7,282,821,-15,1016.41,58.6,0
"2019-10-12 01:28:36+00",17.6,20.6,,58.7,283,688,1,1016.38,58.5,0
"2019-10-12 01:33:36+00",15.7,18.7,,58.7,286,607,4,1016.37,58.5,0
"2019-10-12 01:38:36+00",15.7,17.7,,58.6,179,634,3,1016.48,58.4,0
"2019-10-12 01:43:36+00",15.1,18.1,,58.6,275,573,15,1016.41,58.3,0
"2019-10-12 01:48:36+00",17.2,19.2,,58.6,240,684,5,1016.39,58.3,0
"2019-10-12 01:53:36+00",17.7,18.7,,58.6,273,701,6,1016.38,58.3,0
"2019-10-12 01:58:36+00",15.5,17.5,,58.6,262,602,-1,1016.4,58.3,0
"2019-10-12 02:03:36+00",14.5,18.5,,58.6,175,586,3,1016.34,58.3,0
"2019-10-12 02:08:36+00",16.7,18.7,,58.6,284,654,-3,1016.4,58.3,0
"2019-10-12 02:13:36+00",16.5,18.5,,58.7,307,642,0,1016.49,58.3,0
"2019-10-12 02:18:36+00",19.0,23.0,,58.8,392,716,18,1016.36,58.5,0
"2019-10-12 02:23:36+00",20.5,23.5,,58.8,490,712,13,1016.19,58.6,0
"2019-10-12 02:28:36+00",22.3,24.3,,58.8,556,766,11,1016.04,58.7,0
"2019-10-12 02:33:36+00",22.6,26.6,,58.7,537,825,27,1015.98,58.6,0
"2019-10-12 02:38:36+00",21.3,26.3,,58.7,506,773,16,1015.88,58.5,0
"2019-10-12 02:43:36+00",20.3,23.3,,58.7,481,737,18,1015.79,58.5,0
"2019-10-12 02:48:36+00",20.8,24.8,,58.6,472,775,5,1015.66,58.4,0
"2019-10-12 02:53:36+00",18.7,22.7,,58.6,404,694,19,1015.59,58.4,0
"2019-10-12 02:58:36+00",17.8,19.8,,58.6,327,688,5,1015.55,58.3,0
"2019-10-12 03:03:36+00",19.1,21.1,,58.7,353,734,4,1015.44,58.3,0
"2019-10-12 03:08:36+00",18.4,20.4,,58.6,286,722,-2,1015.35,58.3,0
"2019-10-12 03:13:36+00",19.2,22.2,,58.6,412,728,3,1015.28,58.3,0
"2019-10-12 03:18:36+00",16.1,21.1,,58.6,319,605,19,1015.17,58.3,0
"2019-10-12 03:23:36+00",22.4,29.4,,58.6,440,867,2,1015.11,58.3,0
"2019-10-12 03:28:36+00",26.3,28.3,,58.6,769,786,17,1015.04,58.4,0
"2019-10-12 03:33:36+00",27.4,31.4,,58.4,774,837,12,1014.95,58.3,0
"2019-10-12 03:38:36+00",25.1,29.1,,58.4,699,771,17,1014.9,58.3,0
"2019-10-12 03:43:36+00",29.5,31.5,,58.4,818,878,-8,1014.78,58.3,0
"2019-10-12 03:48:36+00",25.1,28.1,,58.2,605,916,20,1014.92,58.1,0
"2019-10-12 03:53:36+00",23.5,27.5,,58.1,430,916,1,1015.04,58,0
"2019-10-12 03:58:36+00",21.3,26.3,,58.1,410,809,11,1015.03,57.8,0
"2019-10-12 04:03:36+00",22.6,26.6,,58,445,866,14,1015.07,57.8,0
"2019-10-12 04:08:36+00",19.9,25.9,,58,431,749,23,1015,57.7,0
"2019-10-12 04:13:36+00",22.1,24.1,,58.1,582,736,8,1014.96,57.8,0
"2019-10-12 04:18:36+00",22.7,25.7,,58.1,571,760,15,1014.97,57.9,0
"2019-10-12 04:23:36+00",21.4,24.4,,58.1,476,789,9,1014.89,57.8,0
"2019-10-12 04:28:36+00",19.3,22.3,,58,416,715,28,1014.79,57.7,0
"2019-10-12 04:33:36+00",18.0,20.0,,57.9,332,697,7,1014.78,57.6,0
"2019-10-12 04:38:36+00",18.0,20.0,,57.8,335,696,-6,1014.79,57.4,0
"2019-10-12 04:43:36+00",14.2,18.2,,57.8,145,584,14,1014.75,57.4,0
"2019-10-12 04:48:36+00",14.6,18.6,,57.9,177,600,-2,1014.75,57.4,0
"2019-10-12 04:53:36+00",15.5,20.5,,57.7,223,621,7,1014.74,57.3,0
"2019-10-12 04:58:36+00",11.5,13.5,,57.7,174,447,11,1014.82,57.3,0
"2019-10-12 05:03:36+00",14.6,16.6,,57.8,285,556,7,1014.85,57.3,0
"2019-10-12 05:08:36+00",13.4,14.4,,57.7,118,558,13,1014.86,57.3,0
"2019-10-12 05:13:36+00",14.0,15.0,,57.6,125,595,4,1014.89,57.2,0
"2019-10-12 05:18:36+00",11.1,12.1,,57.6,6,486,13,1014.81,57.2,0
"2019-10-12 05:23:36+00",11.2,13.2,,57.4,-108,479,8,1014.81,57.1,0
"2019-10-12 05:28:36+00",11.0,12.0,,57.2,-144,460,19,1014.87,57,0
"2019-10-12 05:33:36+00",10.6,12.6,,57.1,-148,440,28,1014.73,56.8,0
"2019-10-12 05:38:36+00",13.5,17.5,,57.1,-103,581,23,1014.76,56.7,0
"2019-10-12 05:43:36+00",11.4,13.4,,57,-124,476,11,1014.74,56.5,0
"2019-10-12 05:48:36+00",11.2,12.2,,56.8,-154,479,24,1014.83,56.5,0
"2019-10-12 05:53:36+00",10.5,11.5,,56.8,-168,430,29,1014.88,56.4,0
"2019-10-12 05:58:36+00",12.3,13.3,,56.7,-231,489,29,1014.96,56.3,0
"2019-10-12 06:03:36+00",11.8,13.8,,56.8,-287,433,25,1015.08,56.3,0
"2019-10-12 06:08:36+00",12.0,14.0,,56.8,-275,465,34,1014.95,56.3,0
"2019-10-12 06:13:36+00",10.7,12.7,,56.7,-224,414,29,1014.83,56.2,0
"2019-10-12 06:18:36+00",10.8,11.8,,56.6,-230,413,29,1014.72,56.2,0
"2019-10-12 06:23:36+00",11.4,12.4,,56.6,-296,403,29,1014.63,56.1,0
"2019-10-12 06:28:36+00",10.1,11.1,,56.5,-197,403,21,1014.49,56,0
"2019-10-12 06:33:36+00",8.7,9.7,,56.4,-155,336,28,1014.33,56,0
"2019-10-12 06:38:36+00",9.6,12.6,,56.3,-149,398,21,1014.33,55.9,0
"2019-10-12 06:43:36+00",9.5,10.5,,56.2,-28,411,15,1014.13,55.9,0
"2019-10-12 06:48:36+00",9.2,11.2,,56,-79,401,17,1014.03,55.7,0
"2019-10-12 06:53:36+00",12.2,14.2,,56.2,-65,530,10,1014.13,55.7,0
"2019-10-12 06:58:36+00",11.3,13.3,,56.2,-67,496,16,1013.88,55.6,0
"2019-10-12 07:03:36+00",10.3,11.3,,56.1,-9,457,8,1013.77,55.6,0
"2019-10-12 07:08:36+00",11.2,12.2,,56,74,477,11,1013.64,55.6,0
"2019-10-12 07:13:36+00",12.0,15.0,,56.1,94,497,11,1013.62,55.5,0
"2019-10-12 07:18:36+00",13.2,17.2,,56.2,68,570,17,1013.66,55.6,0
"2019-10-12 07:23:36+00",13.4,14.4,,56.2,22,576,18,1013.74,55.6,0
"2019-10-12 07:28:36+00",12.3,14.3,,56.1,0,536,17,1013.81,55.6,0
"2019-10-12 07:33:36+00",9.5,11.5,,55.9,-139,385,26,1013.87,55.6,0
"2019-10-12 07:38:36+00",9.7,10.7,,55.8,-145,392,15,1013.68,55.5,0
"2019-10-12 07:43:36+00",9.8,10.8,,55.7,-122,413,28,1013.65,55.4,0
"2019-10-12 07:48:36+00",11.0,13.0,,55.6,-213,434,23,1013.88,55.3,0
"2019-10-12 07:53:36+00",10.8,11.8,,55.7,-195,434,31,1013.93,55.3,0
"2019-10-12 07:58:36+00",9.2,12.2,,55.7,-199,339,35,1013.86,55.3,0
"2019-10-12 08:03:36+00",10.6,12.6,,55.7,-177,429,30,1013.87,55.3,0
"2019-10-12 08:08:36+00",9.2,11.2,,55.7,-155,364,30,1013.91,55.3,0
"2019-10-12 08:13:36+00",9.7,10.7,,55.7,-217,361,29,1013.98,55.3,0
"2019-10-12 08:18:36+00",11.3,13.3,,55.6,-294,397,27,1013.99,55.3,0
"2019-10-12 08:23:36+00",13.2,14.2,,55.6,-399,443,41,1014,55.3,0
"2019-10-12 08:28:36+00",13.4,15.4,,55.7,-422,427,39,1014.1,55.4,0
"2019-10-12 08:33:36+00",13.3,15.3,,55.7,-418,432,44,1014.06,55.5,0
"2019-10-12 08:38:36+00",12.7,14.7,,55.6,-374,443,44,1013.92,55.5,0
"2019-10-12 08:43:36+00",12.7,14.7,,55.4,-293,489,32,1013.75,55.3,0
"2019-10-12 08:48:36+00",12.1,14.1,,55.4,-257,472,32,1013.65,55.2,0
"2019-10-12 08:53:36+00",11.5,13.5,,55.4,-235,447,30,1013.69,55.2,0
"2019-10-12 08:58:36+00",11.6,12.6,,55.4,-236,446,40,1013.78,55.2,0
"2019-10-12 09:03:36+00",12.2,13.2,,55.6,-284,455,40,1013.89,55.3,0
"2019-10-12 09:08:36+00",12.6,14.6,,55.5,-274,479,29,1013.79,55.3,0
"2019-10-12 09:13:36+00",12.0,14.0,,55.6,-260,464,35,1013.79,55.4,0
"2019-10-12 09:18:36+00",11.2,12.2,,55.6,-237,436,35,1013.69,55.4,0
"2019-10-12 09:23:36+00",10.4,13.4,,55.6,-165,434,50,1013.58,55.5,0
"2019-10-12 09:28:36+00",11.3,13.3,,55.5,-110,494,48,1013.6,55.4,0
"2019-10-12 09:33:36+00",10.3,12.3,,55.4,-1,447,19,1013.36,55.4,0
"2019-10-12 09:38:36+00",10.9,11.9,,55.5,9,472,20,1013.4,55.3,0
"2019-10-12 09:43:36+00",12.9,14.9,,55.7,-43,570,15,1013.45,55.3,0
"2019-10-12 09:48:36+00",11.0,13.0,,55.8,-85,480,25,1013.56,55.3,0
"2019-10-12 09:53:36+00",11.5,13.5,,55.8,-204,466,45,1013.74,55.5,0
"2019-10-12 09:58:36+00",12.3,14.3,,55.8,-304,454,48,1013.72,55.6,0
"2019-10-12 10:03:36+00",12.9,14.9,,55.7,-304,479,31,1013.83,55.7,0
"2019-10-12 10:08:36+00",11.7,12.7,,55.7,-276,446,52,1013.73,55.8,0
"2019-10-12 10:13:36+00",12.3,14.3,,55.6,-313,453,62,1013.75,55.7,0
"2019-10-12 10:18:36+00",13.0,14.0,,55.3,-306,487,41,1013.71,55.6,0
"2019-10-12 10:23:36+00",12.0,13.0,,55.3,-250,463,41,1013.79,55.5,0
"2019-10-12 10:28:36+00",12.7,13.7,,55.3,-253,500,32,1013.73,55.4,0
"2019-10-12 10:33:36+00",12.2,13.2,,55.4,-293,456,36,1013.91,55.5,0
"2019-10-12 10:38:36+00",13.2,14.2,,55.5,-409,432,46,1014.1,55.5,0
"2019-10-12 10:43:36+00",14.6,15.6,,55.2,-440,479,47,1014.18,55.5,0
"2019-10-12 10:48:36+00",14.7,16.7,,55,-475,463,59,1014.23,55.4,0
"2019-10-12 10:53:36+00",14.6,16.6,,54.7,-462,461,43,1014.15,55.2,0
"2019-10-12 10:58:36+00",14.2,15.2,,54.6,-395,488,39,1014.15,55,0
"2019-10-12 11:03:36+00",14.4,15.4,,54.6,-386,501,32,1014.02,54.9,0
"2019-10-12 11:08:36+00",15.0,16.0,,54.4,-452,501,47,1014.25,54.8,0
"2019-10-12 11:13:36+00",13.3,14.3,,54.4,-419,424,61,1014.3,54.7,0
"2019-10-12 11:18:36+00",14.2,15.2,,54.4,-415,481,51,1014.39,54.7,0
"2019-10-12 11:23:36+00",12.6,13.6,,54.5,-320,457,43,1014.33,54.7,0
"2019-10-12 11:28:36+00",13.0,14.0,,54.4,-342,471,41,1014.4,54.7,0
"2019-10-12 11:33:36+00",12.9,13.9,,54.4,-311,480,59,1014.39,54.7,0
"2019-10-12 11:38:36+00",12.0,13.0,,54.3,-289,443,45,1014.36,54.6,0
"2019-10-12 11:43:36+00",12.3,13.3,,54.3,-273,461,37,1014.42,54.6,0
"2019-10-12 11:48:36+00",11.6,12.6,,54.4,-257,448,51,1014.45,54.7,41.3
"2019-10-12 11:53:36+00",13.2,14.2,,54.5,-294,511,44,1014.33,55,54.1
"2019-10-12 11:58:36+00",11.1,12.1,,54.6,-268,414,58,1014.3,55.4,64.2
"2019-10-12 12:03:36+00",11.6,12.6,,54.6,-229,452,34,1014.16,55.8,76.6
"2019-10-12 12:08:36+00",11.3,13.3,,54.5,-269,419,52,1014.25,56,80.9
"2019-10-12 12:13:36+00",12.3,13.3,,54.6,-323,439,42,1014.36,56.1,101.4
"2019-10-12 12:18:36+00",11.6,12.6,,54.8,-315,408,51,1014.51,56.2,107.4
"2019-10-12 12:23:36+00",10.9,11.9,,54.8,-255,401,35,1014.42,56.4,113.9
"2019-10-12 12:28:36+00",10.0,11.0,,55,-205,391,54,1014.44,56.6,130.5
"2019-10-12 12:33:36+00",11.2,12.2,,55,-201,444,23,1014.33,56.9,112.6
"2019-10-12 12:38:36+00",9.7,11.7,,55.2,-162,402,56,1014.37,57.1,123.7
"2019-10-12 12:43:36+00",10.9,10.9,,55.3,-113,463,17,1014.38,57.6,149
"2019-10-12 12:48:36+00",10.5,11.5,,55.4,-129,437,14,1014.43,58.1,160.6
"2019-10-12 12:53:36+00",10.2,11.2,,55.6,-90,434,25,1014.49,58.6,175.3
"2019-10-12 12:58:36+00",10.4,11.4,,55.7,-122,437,22,1014.46,59.4,190.1
"2019-10-12 13:03:36+00",11.0,12.0,,55.8,-162,449,23,1014.6,59.5,189.5
"2019-10-12 13:08:36+00",11.0,12.0,,55.8,-208,434,23,1014.59,59.2,177
"2019-10-12 13:13:15+00",10.7,10.7,,56,-174,433,15,1014.65,59,170.2
"2019-10-12 13:18:15+00",11.1,12.1,,56,-202,441,25,1014.74,58.7,179.5
"2019-10-12 13:23:15+00",10.8,11.8,,56.1,-268,393,25,1014.9,58.7,209.1
"2019-10-12 13:28:15+00",8.4,9.4,,56.3,-188,320,49,1014.91,58.7,223.8
"2019-10-12 13:33:15+00",8.4,9.4,,56.3,-145,336,19,1014.88,58.9,240.5
"2019-10-12 13:38:15+00",9.6,11.6,,56.5,-183,377,26,1014.87,59.2,216.8
"2019-10-12 13:43:15+00",8.6,9.6,,56.5,-234,293,18,1015,59.1,198.5
"2019-10-12 13:48:15+00",9.3,10.3,,56.6,-164,364,16,1015.05,59.1,216
"2019-10-12 13:53:15+00",8.0,9.0,,56.7,-136,317,33,1015.01,59.3,210.3
"2019-10-12 13:58:15+00",7.4,8.4,,56.8,-139,289,29,1014.99,59.5,239.2
"2019-10-12 14:03:15+00",8.4,9.4,,57,-92,351,25,1015.08,59.9,226.6
"2019-10-12 14:08:15+00",7.3,8.3,,57,-136,284,16,1015.04,60.2,231.8
"2019-10-12 14:13:15+00",6.4,7.4,,57.1,-94,253,27,1015.05,60.7,210.2
"2019-10-12 14:18:15+00",5.7,6.7,,57.3,8,236,9,1015.06,61,245.7
"2019-10-12 14:23:15+00",6.6,8.6,,57.6,-44,281,26,1015.04,61.7,295.1
"2019-10-12 14:28:15+00",6.7,7.7,,57.5,17,283,4,1014.93,62.6,289.4
"2019-10-12 14:33:15+00",7.1,8.1,,57.6,-14,300,8,1014.89,63.4,240.6
"2019-10-12 14:38:15+00",7.1,8.1,,57.6,28,297,12,1014.78,62.9,146.9
"2019-10-12 14:43:15+00",7.7,8.7,,57.6,-12,327,14,1015.06,62.3,167.9
"2019-10-12 14:48:15+00",5.9,6.9,,57.6,63,231,-25,1014.99,61.9,140.3
"2019-10-12 14:53:15+00",4.1,5.1,,57.7,-78,150,17,1015.02,61.8,255.8
"2019-10-12 14:58:15+00",4.1,5.1,,57.8,-88,142,8,1015.02,61.6,232
"2019-10-12 15:03:15+00",2.6,3.6,,58,-41,94,-5,1015,61.8,372.4
"2019-10-12 15:08:15+00",2.7,2.7,,58.2,-62,85,0,1014.95,62.3,366.6
"2019-10-12 15:13:15+00",1.8,2.8,,58.7,15,60,-9,1014.85,63,364.9
"2019-10-12 15:18:15+00",2.1,3.1,,59.1,5,70,-2,1014.89,63.9,340.2
"2019-10-12 15:23:15+00",2.0,2.0,,59.4,-26,66,-4,1014.87,64.6,368.4
"2019-10-12 15:28:15+00",2.7,3.7,,59.6,-81,68,1,1014.74,65.1,373.4
"2019-10-12 15:33:15+00",6.0,7.0,,59.1,-237,118,27,1014.73,65.5,362.6
"2019-10-12 15:38:15+00",8.6,9.6,,58.9,-316,203,53,1014.73,65.4,373.4
"2019-10-12 15:43:15+00",8.3,9.3,,58.8,-278,231,29,1014.8,64.6,384
"2019-10-12 15:48:15+00",8.8,9.8,,58.7,-326,213,22,1014.91,64,384.6
"2019-10-12 15:53:15+00",6.0,7.0,,59.1,-227,125,62,1014.81,64.1,386.1
"2019-10-12 15:58:15+00",6.5,7.5,,59.2,-233,154,10,1014.77,64.7,388
"2019-10-12 16:03:15+00",7.0,8.0,,59.4,-294,130,45,1014.68,65.2,388.6
"2019-10-12 16:08:15+00",6.5,8.5,,59.7,-260,105,55,1014.72,65.9,390.2
"2019-10-12 16:13:15+00",10.7,11.7,,59.6,-469,76,30,1014.66,66.6,366.4
"2019-10-12 16:18:15+00",8.3,10.3,,59.4,-353,105,56,1014.59,66.8,392.1
"2019-10-12 16:23:15+00",7.7,9.7,,59.6,-311,110,39,1014.62,67.3,392.8
"2019-10-12 16:28:15+00",6.5,7.5,,59.7,-265,94,10,1014.48,67.7,391.6
"2019-10-12 16:33:15+00",7.4,8.4,,60,-314,113,41,1014.44,68.1,390.1
"2019-10-12 16:38:15+00",7.3,9.3,,60.1,-303,117,13,1014.46,68.5,393.7
"2019-10-12 16:43:15+00",6.2,7.2,,60.3,-255,79,25,1014.31,68.8,394.8
"2019-10-12 16:48:15+00",6.2,7.2,,60.6,-252,71,25,1014.26,69.7,393
"2019-10-12 16:53:15+00",5.3,6.3,,60.8,-228,38,4,1014.14,70.5,391.5
"2019-10-12 16:58:15+00",6.1,7.1,,61,-269,30,29,1014.05,71.2,388.7
"2019-10-12 17:03:15+00",7.1,8.1,,61.1,-290,-82,18,1014.07,72,386.7
"2019-10-12 17:08:15+00",6.1,9.1,,61.2,-241,-134,4,1014.07,72.4,381
"2019-10-12 17:13:15+00",5.9,6.9,,61.2,-156,-200,-6,1014.03,71.3,373.8
"2019-10-12 17:18:15+00",5.7,6.7,,61.3,-158,-198,1,1014.07,68.9,366.3
"2019-10-12 17:23:15+00",3.4,5.4,,62.2,-24,-139,11,1013.95,67.7,365.9
"2019-10-12 17:28:15+00",4.4,5.4,,62.8,52,-158,3,1013.98,67.2,362.6
"2019-10-12 17:33:15+00",3.7,4.7,,62.8,92,-121,30,1013.91,67.3,366.6
"2019-10-12 17:38:15+00",3.5,5.5,,62.6,137,-25,24,1013.9,67.1,372.1
"2019-10-12 17:43:15+00",1.5,2.5,,62.9,48,30,-8,1013.98,67.5,366.2
"2019-10-12 17:48:15+00",2.8,4.8,,63.8,82,48,34,1013.77,68,360.7
"2019-10-12 17:53:15+00",2.2,3.2,,64.4,38,35,46,1013.86,68.8,355
"2019-10-12 17:58:15+00",2.6,4.6,,65,46,31,59,1013.76,69.2,349.3
"2019-10-12 18:03:15+00",4.4,5.4,,65.3,172,67,28,1013.68,69.9,345.7
"2019-10-12 18:08:15+00",8.8,10.8,,63.2,387,-45,17,1013.65,68.2,356.3
"2019-10-12 18:13:15+00",8.0,10.0,,62.4,347,-67,7,1013.74,67.2,320.9
"2019-10-12 18:18:15+00",9.3,10.3,,61.8,411,-41,17,1013.71,66.7,362.1
"2019-10-12 18:23:15+00",7.7,8.7,,61.9,311,-139,-4,1013.69,66.1,340.6
"2019-10-12 18:28:15+00",8.3,10.3,,61.9,334,-152,-2,1013.71,66,324.4
"2019-10-12 18:33:15+00",7.6,8.6,,62,280,-169,-20,1013.75,66.1,312.5
"2019-10-12 18:38:15+00",8.8,9.8,,61.9,324,-207,-2,1013.67,65.8,305
"2019-10-12 18:43:15+00",9.2,11.2,,61.8,342,-216,20,1013.61,65.8,298.4
"2019-10-12 18:48:15+00",8.8,9.8,,61.8,328,-197,-10,1013.52,65.9,293.4
"2019-10-12 18:53:15+00",9.4,10.4,,61.4,393,-117,-13,1013.5,65.4,287.9
"2019-10-12 18:58:15+00",8.3,10.3,,61.5,309,-184,7,1013.66,65.1,279.6
"2019-10-12 19:03:15+00",9.7,10.7,,61.2,377,-188,4,1013.56,65,269.8
"2019-10-12 19:08:15+00",9.4,10.4,,61.2,346,-220,-13,1013.64,64.9,263.5
"2019-10-12 19:13:15+00",9.6,10.6,,61.1,373,-201,-15,1013.52,64.6,258
"2019-10-12 19:18:15+00",9.3,10.3,,61.4,331,-234,-15,1013.58,64.7,251
"2019-10-12 19:23:15+00",9.3,10.3,,61.3,387,-153,-19,1013.55,64.7,243.8
"2019-10-12 19:28:15+00",8.7,10.7,,61.3,325,-193,-1,1013.65,64.4,240.2
"2019-10-12 19:33:15+00",7.1,8.1,,61.5,229,-189,34,1013.56,64.3,150.4
"2019-10-12 19:38:15+00",8.3,10.3,,61.6,227,-274,4,1013.55,64.1,226.5
"2019-10-12 19:43:15+00",10.4,13.4,,61.4,315,-327,-24,1013.6,63.7,90.4
"2019-10-12 19:48:15+00",10.1,11.1,,61.2,306,-321,-8,1013.75,63.6,207.6
"2019-10-12 19:53:15+00",9.6,10.6,,61.3,300,-283,-13,1013.79,63.7,201.3
"2019-10-12 19:58:15+00",9.2,10.2,,61.4,297,-266,9,1013.78,63.8,196
"2019-10-12 20:03:15+00",10.1,11.1,,61.7,296,-321,-4,1013.7,63.6,189.1
"2019-10-12 20:08:15+00",8.6,10.6,,61.7,173,-328,-5,1013.72,63.6,184.2
"2019-10-12 20:13:15+00",8.6,9.6,,61.5,110,-350,-14,1013.7,63.2,175
"2019-10-12 20:18:15+00",9.5,11.5,,61.6,140,-371,-7,1013.65,63.1,29.7
"2019-10-12 20:23:15+00",9.4,11.4,,61.3,199,-358,-9,1013.79,62.6,162.4
"2019-10-12 20:28:15+00",9.8,11.8,,61.3,101,-403,-22,1013.9,62.4,49.9
"2019-10-12 20:33:15+00",8.2,10.2,,61.5,73,-327,-2,1013.79,62.4,153.4
"2019-10-12 20:38:15+00",8.3,10.3,,61.6,69,-343,19,1013.78,62.5,129.3
"2019-10-12 20:43:15+00",9.2,11.2,,61.6,151,-363,-8,1013.75,62.6,134.4
"2019-10-12 20:48:15+00",8.7,9.7,,61.6,69,-359,-22,1013.8,62.7,129.8
"2019-10-12 20:53:15+00",9.0,10.0,,61.6,155,-349,-17,1013.8,62.7,118.9
"2019-10-12 20:58:15+00",7.5,8.5,,61.8,64,-307,8,1013.86,62.7,102.9
"2019-10-12 21:03:15+00",7.2,8.2,,62,84,-294,9,1013.89,62.7,88.4
"2019-10-12 21:08:15+00",9.0,10.0,,61.8,140,-357,-10,1013.83,62.6,82.7
"2019-10-12 21:13:15+00",7.9,9.9,,61.8,112,-316,18,1013.96,62.5,70
"2019-10-12 21:18:15+00",8.1,10.1,,61.7,112,-311,9,1013.98,62.3,15.8
"2019-10-12 21:23:15+00",9.1,10.1,,61.6,117,-371,-19,1013.99,62.1,9.7
"2019-10-12 21:28:15+00",6.1,8.1,,61.5,34,-261,3,1014.1,61.9,3.1
"2019-10-12 21:33:15+00",7.9,8.9,,61.6,68,-326,-16,1014.06,62,6.6
"2019-10-12 21:38:15+00",7.4,8.4,,61.8,50,-308,-8,1014.02,62.1,27.8
"2019-10-12 21:43:15+00",6.0,7.0,,62,18,-248,-7,1014.02,62.3,8.2
"2019-10-12 21:48:15+00",4.5,6.5,,61.8,-16,-181,3,1013.98,62.2,0
"2019-10-12 21:53:15+00",6.0,7.0,,61.7,-3,-241,-10,1014.11,62.1,0
"2019-10-12 21:58:15+00",5.8,6.8,,61.6,-5,-245,-12,1014.02,61.9,0
"2019-10-12 22:03:15+00",6.1,6.1,,61.6,7,-254,1,1014.08,61.8,0
"2019-10-12 22:08:15+00",6.1,7.1,,61.7,6,-254,-13,1014.02,61.7,0
"2019-10-12 22:13:15+00",4.4,5.4,,61.7,13,-181,5,1014.01,61.7,0
"2019-10-12 22:18:15+00",5.6,6.6,,61.7,53,-224,-7,1013.9,61.7,0
"2019-10-12 22:23:15+00",5.1,6.1,,61.7,69,-207,4,1013.97,61.7,0
"2019-10-12 22:28:15+00",4.7,4.7,,61.7,13,-190,-10,1013.89,61.7,0
"2019-10-12 22:33:15+00",4.3,4.3,,61.7,-30,-175,-10,1014.06,61.6,0
"2019-10-12 22:38:15+00",4.1,6.1,,61.7,-12,-165,-3,1014.02,61.7,0
"2019-10-12 22:43:15+00",4.4,6.4,,61.8,-18,-181,-2,1014,61.7,0
"2019-10-12 22:48:15+00",5.0,6.0,,61.8,-38,-201,-9,1014.07,61.7,0
"2019-10-12 22:53:15+00",4.7,4.7,,61.9,-21,-190,-7,1014.06,61.7,0
"2019-10-12 22:58:15+00",5.4,6.4,,61.9,-9,-226,-19,1013.95,61.7,0
"2019-10-12 23:03:15+00",4.8,5.8,,61.9,28,-198,4,1013.92,61.7,0
"2019-10-12 23:08:15+00",4.2,5.2,,62,-6,-177,-11,1014.15,61.8,0
"2019-10-12 23:13:15+00",3.6,4.6,,62,-36,-143,-3,1014.26,61.8,0
"2019-10-12 23:18:15+00",4.4,5.4,,62,-44,-174,-4,1014.27,61.8,0
"2019-10-12 23:23:15+00",4.0,5.0,,62,-15,-152,1,1014.27,61.8,0
"2019-10-12 23:28:15+00",3.9,4.9,,62.1,-26,-158,-8,1014.36,61.8,0
"2019-10-12 23:33:15+00",3.5,4.5,,62.1,-9,-141,-2,1014.31,61.9,0
"2019-10-12 23:38:15+00",4.3,5.3,,62.1,-57,-175,-6,1014.47,61.9,0
"2019-10-12 23:43:15+00",4.6,5.6,,62.1,-89,-175,3,1014.49,61.8,0
"2019-10-12 23:48:15+00",4.6,5.6,,62.1,-119,-164,6,1014.58,61.7,0
"2019-10-12 23:53:15+00",3.8,3.8,,62.2,-89,-140,0,1014.56,61.7,0
"2019-10-12 23:58:15+00",3.5,3.5,,62.2,-82,-124,5,1014.53,61.7,0
